Voltar ao catálogo

STARLINK-36276

AtivoComunicaçõesVLEO
NORAD 67852·PAYLOAD·🇺🇸 United States

Lançado Feb 20, 2026 de Vandenberg Space Force Base

Loading…

Próximas Passagens (próximas 24 horas)

TLE

AtualizadoSource: CelesTrak SupGP

Época: Sep 15, 2026, 03:23 UTC

1 67852C 26034C   26258.14145833  .00001756  00000+0  51887-4 0  2584
2 67852  53.1596  42.7650 0001212  87.9114 251.7956 15.34381648    18

Acompanhe STARLINK-36276 em tempo real com AllMySat

Download on the App Store